User: anonymous   Login
Location: Unspecified
(0.0000°N, 0.0000°E)
Time: 09:55:11
(UTC+00:00)
Language:

Aussat K2 - Orbit

View from above orbital plane
View from above orbital plane
View from above satellite
View from above satellite

Ground track
Ground track

The orbit data is extracted from the following two-line orbital elements,

1 16275U 85109C   19018.56588279 +.00000120 +00000-0 +00000-0 0  9996
2 16275 015.1550 002.5689 0008275 293.2780 068.2692 00.99939238019480
Epoch (UTC): 18 January 2019 13:34:52
Eccentricity: 0.0008275
inclination: 15.1550°
perigee height: 35845 km
apogee height: 35914 km
right ascension of ascending node: 2.5689°
argument of perigee: 293.2780°
revolutions per day: 0.99939238
mean anomaly at epoch: 68.2692°
orbit number at epoch: 1948

The dashed part of the orbit path shows where the satellite is in the earth's shadow,  

DLR